Theta_e
315 314 314 314 314 314 314 315 314 314 314 313 312 312 310 309 308 317 314 311 311 310 329 332 329 337 346 349 350 352 363 363 363 363 362 355 354 351 349 351 347 346 345 347 347
315 314 314 314 314 314 314 314 314 314 314 314 313 313 309 307 317 316 314 309 307 311 327 327 328 334 340 346 351 357 361 360 356 357 358 354 352 350 351 353 351 347 346 346 345
314 314 313 313 313 313 314 314 314 314 314 314 313 313 309 311 319 314 320 315 307 316 326 326 326 329 332 342 350 353 359 355 357 355 353 353 354 349 352 355 351 351 349 346 344
314 314 313 312 313 313 314 314 314 314 313 314 314 312 311 318 317 322 313 314 307 322 325 325 327 326 331 342 346 355 354 354 355 353 350 353 349 353 351 350 347 346 346 345 344
314 313 313 313 313 313 313 313 313 313 313 313 313 312 318 320 318 313 316 308 321 322 325 324 325 325 330 342 347 354 353 354 353 350 351 350 354 352 351 347 345 345 344 344 342
313 314 313 312 312 312 311 311 311 311 312 312 311 311 317 320 316 323 327 320 326 324 322 324 324 325 335 344 348 344 351 355 352 352 352 353 352 352 350 346 346 345 343 342 341
313 313 310 310 310 310 309 310 310 310 309 311 311 316 318 319 315 328 325 322 323 321 324 324 323 327 338 342 340 345 351 355 354 354 353 349 352 355 348 346 345 343 343 343 342
312 313 311 310 310 312 311 311 312 311 311 311 312 317 319 312 316 323 323 319 323 319 322 322 322 329 339 339 337 346 348 358 357 354 353 351 361 354 346 343 343 344 344 345 344
312 311 312 312 310 310 313 314 316 311 312 312 318 318 317 314 317 320 317 316 320 319 318 319 322 328 337 342 337 345 349 356 362 355 354 355 359 353 349 343 344 345 345 347 348
311 311 311 312 313 312 312 314 316 316 317 317 317 322 320 321 318 318 318 316 318 319 317 319 323 326 340 343 344 342 342 357 363 358 355 359 358 354 352 349 346 346 347 348 349
311 311 311 311 312 313 314 320 323 326 321 323 321 320 320 320 319 319 319 317 316 317 318 319 323 327 338 341 334 336 337 356 357 358 359 358 355 358 354 351 348 347 348 348 348
310 310 311 312 312 312 312 320 320 319 323 321 320 320 319 319 320 322 319 320 318 317 319 322 324 326 335 339 330 339 340 356 358 359 358 359 358 356 355 351 350 349 348 348 348
310 310 312 313 311 313 317 318 316 318 324 322 320 321 321 320 320 323 321 321 319 318 320 323 322 328 335 335 331 348 347 353 355 356 354 356 362 361 355 352 349 348 349 348 347
310 311 313 313 314 317 319 316 316 317 325 323 323 322 321 322 320 321 321 321 318 318 319 323 327 329 335 336 332 337 337 349 357 356 360 356 360 362 359 357 353 349 349 348 347
311 312 314 314 317 319 317 316 317 318 326 322 323 320 321 322 321 320 320 323 320 318 321 324 326 331 335 337 331 333 336 346 350 349 354 355 350 358 360 361 356 352 348 346 345
312 313 315 314 315 318 317 317 317 323 325 323 323 323 321 322 323 321 323 324 323 322 323 328 327 332 331 332 329 329 338 342 343 347 346 348 351 361 363 360 358 353 351 346 345
313 315 314 313 321 316 317 320 326 325 323 323 323 323 322 324 324 322 323 324 325 324 322 328 329 328 330 331 330 334 341 344 343 345 345 342 344 349 351 351 354 354 351 350 345
316 316 315 315 316 316 319 324 325 323 323 323 323 323 322 323 326 324 324 325 325 323 324 327 328 328 326 327 331 333 339 340 345 346 344 348 347 349 347 348 349 352 351 350 348
316 318 319 320 317 318 324 321 323 323 322 323 323 323 322 323 325 326 326 326 325 324 324 326 328 326 326 326 326 331 336 336 338 339 342 346 347 350 351 352 351 352 352 351 350
321 323 323 319 318 320 322 320 321 321 322 322 323 324 325 323 324 325 327 327 326 324 324 326 327 325 325 325 325 327 333 338 337 343 344 346 346 354 358 355 353 352 353 351 349
321 325 322 319 319 322 321 320 320 320 320 322 321 325 326 326 324 325 325 324 324 324 324 325 325 325 325 325 325 326 328 330 332 334 340 343 345 354 359 356 355 353 350 350 350
322 324 321 319 322 321 320 320 315 319 321 320 320 323 326 326 325 325 324 323 323 323 326 325 326 330 325 324 325 325 326 328 332 337 336 342 359 354 355 356 353 354 352 350 351
324 324 320 320 321 320 320 318 319 319 321 322 321 321 325 326 327 326 323 323 323 324 327 327 327 329 329 327 326 327 326 327 329 331 336 336 343 356 356 356 356 357 355 353 351
322 322 322 320 320 321 319 319 318 318 319 322 322 321 324 326 325 324 323 323 323 325 325 323 328 330 329 328 326 328 328 328 329 332 332 336 347 358 358 357 354 354 353 353 353
324 322 320 321 320 319 319 319 318 318 318 321 323 322 324 325 326 325 323 324 323 326 326 326 331 329 327 329 328 328 328 328 329 329 331 332 335 347 355 356 353 351 352 353 351
326 324 321 321 320 320 317 319 316 317 318 317 323 322 323 324 324 323 322 323 324 324 328 326 329 329 328 326 330 331 331 329 330 330 331 332 345 351 352 352 353 351 349 350 350
324 323 323 314 320 319 318 317 318 318 318 317 315 323 323 321 320 319 319 319 319 322 326 327 329 330 330 327 327 335 337 336 337 338 340 332 349 351 353 351 350 347 344 344 342
Wind_Speed
10 9 9 10 10 9 9 9 9 8 9 9 8 7 9 8 8 5 11 6 10 12 15 14 11 11 10 7 4 2 4 2 2 12 6 4 6 4 1 12 5 4 13 27 24
11 11 11 11 11 10 9 9 8 9 9 9 9 8 8 10 9 14 11 12 8 17 19 19 14 14 8 7 5 5 2 3 5 6 11 8 6 10 9 10 11 17 25 28 26
12 11 11 11 10 10 10 9 9 8 9 9 9 9 6 6 7 2 3 8 17 23 19 16 13 13 8 6 6 3 3 3 1 8 13 8 7 5 10 10 15 23 26 25 25
11 11 10 11 10 10 10 10 9 8 9 9 9 9 3 4 1 4 6 11 20 20 18 14 14 12 9 8 8 6 3 10 7 14 10 6 5 9 3 5 15 21 26 25 21
11 11 11 10 10 10 9 9 8 8 8 8 8 6 3 7 5 2 7 18 18 21 23 16 14 11 9 7 8 4 3 10 12 18 13 8 9 3 6 11 20 24 23 22 19
12 11 10 10 10 9 8 8 8 7 7 7 5 1 6 9 3 7 6 18 19 19 21 17 11 9 6 7 9 4 7 16 16 12 5 7 3 4 9 19 23 22 20 19 18
12 11 9 9 8 7 5 6 6 5 5 5 2 3 8 4 4 4 13 17 19 14 15 15 8 10 3 8 4 9 8 12 18 11 5 9 2 7 12 20 22 21 19 17 17
15 12 10 9 8 7 6 5 6 5 1 1 3 4 4 2 1 5 10 14 17 9 11 10 5 8 9 4 7 11 9 7 14 13 9 9 11 6 13 19 21 19 18 16 15
16 14 11 9 8 8 6 3 5 1 2 7 2 5 4 2 5 10 10 15 19 10 7 8 7 9 7 11 10 10 8 11 11 18 13 14 11 6 5 14 19 18 18 15 14
17 15 14 11 9 9 3 1 4 7 3 3 5 5 3 6 8 12 7 15 15 12 8 9 9 10 10 10 12 12 9 14 13 11 17 15 10 14 10 15 19 19 18 16 15
17 17 16 12 8 7 3 1 5 5 7 6 4 5 4 8 12 10 14 11 12 13 10 12 11 17 18 14 8 7 7 10 12 12 14 10 10 16 17 14 20 19 18 17 16
17 17 18 13 8 6 2 5 5 5 6 4 5 6 6 1 10 12 15 9 12 14 11 9 15 15 12 8 8 9 10 13 12 16 8 11 9 16 17 18 22 21 19 17 17
19 18 19 12 6 2 6 6 1 6 5 5 2 2 6 9 9 16 15 7 12 14 16 13 9 9 12 12 10 7 9 13 13 13 9 12 6 10 15 19 21 21 20 19 16
20 20 17 7 2 2 3 2 4 6 4 6 5 5 7 6 7 16 19 7 7 13 14 11 6 14 15 15 12 11 1 6 13 15 6 16 3 8 18 18 16 21 20 20 19
20 22 14 3 3 3 1 4 5 5 1 4 6 3 2 6 14 13 19 7 10 10 10 8 11 18 17 14 10 5 6 8 12 4 10 10 3 7 20 17 16 17 22 21 21
24 19 10 1 4 4 4 5 4 7 5 3 1 1 7 9 7 15 15 11 2 8 14 1 12 13 13 10 10 2 9 6 4 3 7 11 9 12 17 26 26 22 19 21 20
24 13 3 5 2 2 6 4 6 5 2 4 4 2 4 8 9 15 17 15 9 10 14 8 13 9 9 14 12 13 14 7 8 7 4 4 8 4 19 14 23 26 25 22 21
16 1 1 4 4 3 6 7 4 3 5 3 3 4 5 4 9 13 15 13 6 11 11 13 14 16 11 14 13 18 18 8 10 10 9 6 6 3 6 12 14 20 19 21 21
3 2 2 2 1 4 7 2 4 4 4 8 5 5 6 7 3 9 12 12 11 9 8 12 11 18 11 14 10 16 19 17 15 6 10 10 6 6 7 11 14 20 24 18 19
1 3 4 1 2 7 3 5 3 4 5 4 6 3 5 7 8 9 10 5 7 6 9 3 10 12 16 15 16 14 14 13 9 10 12 8 10 6 10 11 16 19 24 19 14
4 4 3 4 4 4 4 7 3 4 5 5 6 4 2 3 9 6 3 4 4 11 7 9 9 12 14 15 17 11 13 14 14 14 8 10 8 7 9 8 16 19 20 22 25
4 2 2 4 3 1 5 4 2 4 2 2 4 5 4 4 1 3 5 7 5 8 10 10 8 8 18 13 13 21 17 17 11 12 12 9 5 5 5 9 9 13 13 17 17
1 3 1 4 2 3 4 3 4 7 8 5 4 5 3 1 1 2 2 4 8 5 3 5 9 9 8 9 9 14 16 18 20 17 16 11 3 6 7 8 10 10 11 10 11
3 4 3 2 1 4 1 2 1 4 4 3 6 2 3 4 3 4 1 4 5 4 2 3 4 11 4 14 16 17 12 16 13 13 14 12 6 8 10 10 9 10 12 13 15
1 3 3 2 3 2 1 2 4 4 2 5 2 6 3 1 9 11 8 10 4 2 2 3 2 5 5 6 4 8 15 15 15 18 12 8 12 9 10 11 12 10 9 12 12
2 2 3 3 3 4 2 3 4 4 6 4 4 6 6 7 7 2 3 3 4 6 1 5 2 3 6 4 5 9 5 6 5 6 7 8 6 5 9 9 10 10 10 9 13
2 1 4 4 3 4 3 1 2 0 3 5 5 4 3 7 5 3 2 2 3 5 4 2 5 5 8 1 7 10 6 4 3 1 6 10 8 9 10 9 10 10 10 9 9
Wind_Direction
339 333 327 322 318 316 314 315 317 317 320 321 319 318 312 313 320 267 247 232 197 177 157 164 172 174 182 198 212 230 234 258 166 168 140 142 128 119 166 151 152 122 146 139 150
338 336 331 326 322 319 315 312 312 312 316 317 318 317 313 317 294 254 248 220 199 174 175 179 172 176 193 207 205 241 286 5 342 145 143 142 104 129 142 134 133 119 120 142 147
336 334 330 325 320 315 311 311 312 312 313 313 314 313 315 337 272 147 195 225 183 168 183 189 176 192 198 201 191 148 9 80 315 161 134 130 120 148 161 153 154 145 143 149 152
336 332 332 326 321 315 310 308 306 305 308 309 311 307 324 262 214 97 357 179 176 172 180 181 185 197 208 199 171 160 71 39 109 134 120 159 127 90 255 90 152 153 148 152 158
344 340 333 330 323 320 316 309 303 302 302 300 303 313 310 220 252 5 338 159 162 179 184 186 192 209 204 197 171 237 142 73 149 145 146 165 92 69 108 135 141 147 152 153 160
350 344 341 339 334 329 320 309 300 292 284 289 292 118 255 240 20 334 176 160 170 185 187 192 205 212 217 202 216 148 145 119 147 134 123 124 86 348 122 140 141 153 157 157 158
353 351 351 348 347 336 338 319 307 294 297 286 256 267 250 282 8 46 156 168 168 186 176 187 217 212 201 180 149 144 152 129 149 149 123 134 152 87 145 149 151 159 159 157 160
0 359 1 1 359 350 338 324 308 287 264 284 158 248 264 179 39 133 153 161 165 150 195 178 190 229 251 77 186 183 172 181 153 153 163 206 166 120 164 159 160 161 159 157 161
5 1 357 358 349 342 345 352 343 129 110 120 200 250 124 140 182 143 149 160 167 156 142 189 220 220 192 211 191 197 184 151 138 186 158 200 138 174 160 185 167 169 165 164 166
356 356 354 357 346 337 346 99 75 78 110 196 255 241 199 100 134 145 148 158 164 154 148 187 208 205 211 211 202 188 213 165 151 161 167 195 143 165 193 218 171 174 166 169 171
351 347 346 342 335 328 94 179 214 180 208 299 349 308 104 99 139 162 148 156 175 185 185 191 208 206 193 213 359 298 231 153 139 153 150 131 138 173 180 208 185 180 169 175 176
346 342 339 334 324 322 171 273 25 348 306 199 258 254 247 282 151 157 167 161 181 190 182 175 219 204 201 199 240 223 216 115 125 151 157 175 175 169 171 192 197 186 180 187 182
340 339 336 334 323 173 250 267 306 325 265 121 155 170 152 198 171 170 197 161 190 198 203 208 191 176 206 199 207 216 207 159 153 167 182 176 137 163 175 199 200 190 193 195 187
337 335 333 346 119 212 242 223 269 289 221 91 146 122 152 216 162 161 197 187 188 204 211 235 131 183 207 206 216 174 233 151 148 178 180 203 122 187 172 183 193 190 193 194 188
337 330 327 250 313 255 48 303 301 216 302 42 82 103 178 233 129 178 194 208 197 190 198 186 187 192 200 209 208 75 171 173 178 222 147 183 149 159 166 187 190 206 196 195 192
334 325 325 29 224 251 287 309 221 231 80 84 75 330 193 202 169 147 186 238 334 203 217 359 210 199 193 180 204 191 169 168 172 254 230 171 256 163 182 198 195 190 202 202 199
331 313 241 190 33 246 292 239 235 36 171 33 360 317 288 167 158 174 187 193 194 196 189 179 191 189 213 198 197 208 180 176 199 202 250 136 212 67 194 178 192 189 192 203 197
332 37 111 207 269 270 255 248 49 35 29 7 320 270 247 190 154 182 187 197 212 245 183 198 181 197 196 216 188 211 211 213 206 210 211 130 220 149 183 194 190 198 182 203 194
4 113 172 340 213 207 251 343 26 26 4 343 261 276 166 188 261 176 196 208 192 226 245 205 223 180 202 215 216 193 225 237 274 254 258 162 179 150 186 206 199 181 170 205 204
166 203 61 176 304 251 259 75 80 8 334 302 352 342 294 184 215 212 168 220 218 202 271 182 221 194 200 214 214 236 198 211 241 217 231 163 224 107 181 176 177 174 180 176 202
211 201 92 334 278 247 61 63 26 57 347 325 357 330 338 268 266 169 105 98 223 185 244 242 260 164 187 204 196 195 224 221 245 238 257 229 195 72 137 182 173 176 179 180 196
280 182 112 324 219 2 66 16 290 19 55 326 295 14 354 327 248 178 320 10 348 256 213 221 244 194 199 199 242 203 214 203 228 191 256 309 82 108 141 152 182 160 178 184 185
292 80 108 291 297 123 133 121 3 12 32 5 9 10 3 100 101 26 127 13 352 219 286 195 235 209 169 187 206 229 213 231 216 244 220 237 186 129 139 146 141 152 157 153 162
261 185 141 109 21 312 287 54 22 61 45 8 1 229 201 173 165 217 313 19 7 58 10 233 273 272 259 193 187 203 207 223 240 228 235 210 148 165 161 156 139 154 163 159 166
297 74 8 145 108 104 286 327 339 357 0 13 84 25 351 106 155 152 227 305 145 117 64 317 258 247 77 81 159 201 201 200 225 242 264 233 214 150 172 158 167 156 166 160 163
289 216 163 105 150 241 149 40 44 75 359 41 29 33 45 72 18 79 334 348 356 316 284 8 130 226 116 109 142 133 161 199 224 246 259 268 106 121 130 137 151 149 157 159 162
61 184 283 157 185 271 43 114 72 288 75 38 341 287 99 41 356 17 173 110 109 269 318 148 333 249 138 142 177 145 41 56 146 172 320 225 56 149 135 152 121 125 124 132 124